[[{"header":{"parameterUnit":"m.s-1","parameterCategory":2,"la1":30.2991,"la2":30.254,"lo1":-89.0895,"lo2":-89.0444,"dy":0.0017,"dx":0.0017,"nx":28,"ny":28,"refTime":"2025-03-09T09:00:00:Z","depth":"0","parameterNumber":2,"parameterNumberName":"U-component_of_CURRENTS"},"data":[0,0,0,0,0,0,0,0,0,0,0,0,0,0,0,0,0,0,0,0,0,0,0,0,0,0,0,0,0,0,0,0,0,0,0,0,0,0,0,0,0,0,0,0,0,0,0,0,0,0,0,0,0,0,0,0,0,0,0.2742,0.2742,0,0.2731,0.2731,0.273,0.2744,0.2745,0.2746,0.2747,0.2741,0.274,0.2739,0,0,0,0,0,0,0,0,0,0,0,0,0,0.2773,0.2772,0.2741,0.2742,0.2742,0.2731,0.2731,0.273,0.2744,0.2745,0.2746,0.2747,0.2741,0.274,0.2739,0,0,0,0,0,0,0,0,0,0,0,0,0,0.2758,0.2772,0.2741,0.2749,0.275,0.2731,0.2731,0.273,0.2744,0.2745,0.2746,0.2747,0.2741,0.274,0.2739,0.271,0,0,0.2735,0.2735,0,0,0,0,0,0,0,0,0.2759,0.2757,0.2748,0.2749,0.2749,0.2742,0.274,0.2724,0.2744,0.2744,0.2747,0.2748,0.2742,0.2741,0.2733,0.271,0.2709,0.2735,0.2734,0.2734,0.2733,0,0,0,0,0,0,0,0.276,0.2757,0.2735,0.2748,0.2749,0.2753,0.2752,0.2737,0.2736,0.2744,0.2746,0.2748,0.2743,0.2734,0.2733,0.2709,0.2735,0.2734,0.2733,0.2733,0.2707,0.2707,0,0,0,0,0,0,0.2765,0.2758,0.2735,0.2735,0.276,0.2752,0.275,0.2741,0.2736,0.2736,0.2747,0.2748,0.2736,0.2735,0.2733,0.2758,0.2734,0.2733,0.2732,0.2707,0.2707,0.2707,0,0,0,0,0,0,0.2765,0.2762,0.2736,0.2749,0.2746,0.275,0.274,0.2741,0.2739,0.2738,0.2739,0.2746,0.2737,0.2735,0.2727,0.2756,0.2732,0.2731,0.2707,0.2707,0.2707,0.2769,0,0,0,0,0,0,0.2766,0.2762,0.2758,0.2749,0.2746,0.2729,0.2739,0.274,0.2739,0.2741,0.2737,0.2737,0.2738,0.2728,0.2725,0.2754,0.273,0.2707,0.2707,0.2707,0.2767,0.2771,0.2775,0,0,0,0,0,0.2767,0.2756,0.2758,0.2756,0.274,0.2729,0.2727,0.2733,0.2738,0.2735,0.2734,0.2738,0.2728,0.2727,0.2723,0.2752,0.2707,0.2707,0.2707,0.2765,0.2771,0.2775,0,0,0,0,0,0,0.2764,0.2756,0.2758,0.2745,0.2741,0.2732,0.2731,0.2731,0.2725,0.273,0.2729,0.2729,0.2736,0.2723,0.2722,0.2743,0.2721,0.272,0.2766,0.2771,0.2775,0.2815,0.2729,0,0,0,0,0,0.2762,0.2754,0.2748,0.2737,0.2736,0.2732,0.273,0.2732,0.2727,0.2726,0.2722,0.2722,0.273,0.2734,0.2727,0.2729,0.2778,0.2746,0.275,0.2754,0.2782,0.2865,0.2881,0.2708,0.2708,0.2708,0,0,0.2759,0.2754,0.2749,0.2737,0.2735,0.2738,0.2733,0.2728,0.2742,0.2724,0.2734,0.2729,0.273,0.2743,0.2746,0.274,0.2831,0.2754,0.2758,0.2785,0.2868,0.2885,0.2901,0.2708,0.2708,0.2708,0,0,0.2748,0.2743,0.2735,0.2735,0.2734,0.2738,0.2738,0.273,0.2739,0.2739,0.2744,0.2761,0.2745,0.2774,0.2784,0.2801,0.2844,0.2788,0.2851,0.2931,0.2947,0.2962,0.3067,0.3091,0.2797,0.2797,0.2797,0,0.2752,0.2736,0.2731,0.2729,0.274,0.2741,0.2747,0.2754,0.2746,0.2769,0.275,0.278,0.2774,0.2833,0.2845,0.2818,0.2875,0.2837,0.2942,0.2957,0.2972,0.3075,0.3101,0.28,0.28,0.2799,0.2799,0,0.2732,0.2733,0.2729,0.2736,0.2745,0.2747,0.2765,0.278,0.279,0.2806,0.2849,0.2846,0.2876,0.2875,0.2868,0.2963,0.2976,0.2936,0.2941,0.2994,0.3098,0.3124,0.2804,0.2803,0.2802,0.2802,0,0,0.2719,0.2718,0.272,0.2735,0.2753,0.276,0.2798,0.2838,0.2888,0.2887,0.2958,0.2971,0.2981,0.2993,0.299,0.3061,0.3211,0.3049,0.3052,0.3176,0.3423,0.3312,0.333,0.3193,0.3197,0.32,0.3464,0,0.2713,0.2712,0.272,0.2746,0.2754,0.2791,0.2833,0.2877,0.2917,0.2984,0.3018,0.3067,0.3022,0.3051,0.3114,0.3187,0.3278,0.3146,0.3334,0.3341,0.3254,0.3354,0.3127,0.3331,0.3489,0.3493,0.3496,0,0.2689,0.2701,0.2713,0.2767,0.2778,0.2802,0.2895,0.2933,0.3034,0.3071,0.3137,0.3163,0.3272,0.3214,0.3398,0.3318,0.3385,0.3437,0.3447,0.3344,0.3277,0.3297,0.3372,0.3242,0.3536,0.3533,0.353,0,0.2673,0.2701,0.2715,0.2728,0.2786,0.2822,0.2866,0.2958,0.302,0.314,0.3206,0.3309,0.3378,0.3479,0.356,0.3506,0.3771,0.3702,0.3678,0.3673,0.3517,0.3488,0.3504,0.3853,0.3853,0.3852,0.3851,0,0.266,0.2676,0.2709,0.2721,0.2781,0.2818,0.2905,0.2971,0.3083,0.3179,0.3245,0.3344,0.3448,0.3582,0.3647,0.3751,0.3843,0.3735,0.374,0.3528,0.3499,0.3404,0.3363,0.3862,0.386,0.3858,0.3856,0,0.2637,0.2647,0.2681,0.2744,0.2769,0.2815,0.2923,0.2996,0.3091,0.3227,0.3272,0.3423,0.3594,0.3698,0.389,0.3853,0.3849,0.3978,0.3731,0.3698,0.3486,0.3456,0.3456,0.3362,0.4008,0.4007,0.4006,0,0.2621,0.2629,0.2698,0.2738,0.2768,0.2839,0.2902,0.2997,0.308,0.3271,0.3346,0.3533,0.3665,0.3893,0.3873,0.3986,0.3866,0.3808,0.3634,0.348,0.3455,0.3351,0.3265,0.3484,0.3479,0.3475,0.3472,0,0.2626,0.2646,0.2687,0.276,0.2821,0.2888,0.2976,0.3033,0.316,0.3269,0.3435,0.3557,0.3718,0.3707,0.3788,0.3799,0.3571,0.3722,0.363,0.3112,0.2939,0.2845,0.3336,0.3434,0.3438,0.3441,0.3443,0.3444,0.2648,0.268,0.2736,0.2803,0.2867,0.2927,0.2959,0.3055,0.3162,0.3293,0.3435,0.355,0.3518,0.3583,0.3569,0.329,0.3366,0.3129,0.3142,0.3079,0.2854,0.3268,0.3302,0.3305,0.3307,0.331,0.3312,0,0.2694,0.2726,0.2785,0.2853,0.2898,0.293,0.3009,0.3017,0.3098,0.3239,0.3355,0.3306,0.3228,0.3156,0.2877,0.2716,0.2598,0.2621,0.2417,0.2388,0.2815,0.2646,0.2453,0.2453,0.2453,0.2453,0.2453,0.2453,0.2729,0.2783,0.28,0.2865,0.2898,0.2916,0.2933,0.2944,0.3006,0.301,0.2988,0.3036,0.2897,0.2662,0.2356,0.2269,0.2112,0.1993,0.2078,0.234,0.2386,0.2431,0.226,0.1989,0.1988,0.1486,0.1483,0.148]},{"header":{"parameterUnit":"m.s-1","parameterCategory":2,"la1":30.2991,"la2":30.254,"lo1":-89.0895,"lo2":-89.0444,"dy":0.0017,"dx":0.0017,"nx":28,"ny":28,"refTime":"2025-03-09T09:00:00:Z","depth":"0","parameterNumber":3,"parameterNumberName":"V-component_of_CURRENTS"},"data":[0,0,0,0,0,0,0,0,0,0,0,0,0,0,0,0,0,0,0,0,0,0,0,0,0,0,0,0,0,0,0,0,0,0,0,0,0,0,0,0,0,0,0,0,0,0,0,0,0,0,0,0,0,0,0,0,0,0,-0.0223,-0.0223,0,-0.0236,-0.0236,-0.0237,-0.0273,-0.0274,-0.0275,-0.0276,-0.0335,-0.0336,-0.0337,0,0,0,0,0,0,0,0,0,0,0,0,0,-0.0215,-0.0215,-0.0223,-0.0223,-0.0223,-0.0236,-0.0236,-0.0237,-0.0273,-0.0274,-0.0275,-0.0276,-0.0335,-0.0336,-0.0337,0,0,0,0,0,0,0,0,0,0,0,0,0,-0.0223,-0.0215,-0.0223,-0.0243,-0.0245,-0.0236,-0.0236,-0.0237,-0.0273,-0.0274,-0.0275,-0.0276,-0.0335,-0.0336,-0.0337,-0.0323,0,0,-0.0341,-0.0342,0,0,0,0,0,0,0,0,-0.0222,-0.0223,-0.024,-0.0241,-0.0243,-0.0254,-0.0255,-0.0268,-0.0273,-0.0263,-0.0276,-0.0277,-0.0311,-0.0314,-0.0314,-0.0326,-0.0328,-0.0341,-0.0342,-0.0343,-0.0343,0,0,0,0,0,0,0,-0.0222,-0.0223,-0.0229,-0.024,-0.0242,-0.0246,-0.0248,-0.0258,-0.0282,-0.0264,-0.0266,-0.0267,-0.0313,-0.0313,-0.0316,-0.0329,-0.0341,-0.0343,-0.0343,-0.0344,-0.0343,-0.0343,0,0,0,0,0,0,-0.0219,-0.0222,-0.0228,-0.0229,-0.0235,-0.0245,-0.0248,-0.025,-0.0281,-0.0286,-0.0266,-0.0268,-0.031,-0.0315,-0.0319,-0.0319,-0.0343,-0.0344,-0.0345,-0.0344,-0.0343,-0.0342,0,0,0,0,0,0,-0.0218,-0.0219,-0.0228,-0.0225,-0.0227,-0.0244,-0.0246,-0.0249,-0.0251,-0.0282,-0.0288,-0.0264,-0.0311,-0.0317,-0.032,-0.0321,-0.0345,-0.0346,-0.0345,-0.0344,-0.0343,-0.031,0,0,0,0,0,0,-0.0218,-0.0219,-0.0217,-0.0225,-0.0227,-0.0216,-0.0245,-0.0249,-0.0249,-0.0253,-0.0282,-0.0289,-0.0313,-0.0317,-0.0321,-0.0324,-0.0347,-0.0346,-0.0345,-0.0343,-0.0312,-0.0308,-0.0304,0,0,0,0,0,-0.0218,-0.0205,-0.0216,-0.0217,-0.0224,-0.0215,-0.0216,-0.0233,-0.0248,-0.024,-0.0259,-0.0288,-0.0311,-0.0317,-0.0322,-0.0325,-0.0347,-0.0345,-0.0343,-0.0314,-0.0309,-0.0304,0,0,0,0,0,0,-0.0198,-0.0208,-0.0221,-0.0212,-0.0213,-0.0222,-0.0213,-0.0226,-0.0234,-0.0239,-0.0273,-0.028,-0.0284,-0.0301,-0.0307,-0.0318,-0.0335,-0.0334,-0.0311,-0.0307,-0.0303,-0.03,-0.0348,0,0,0,0,0,-0.0193,-0.0189,-0.0198,-0.019,-0.0187,-0.02,-0.0198,-0.0209,-0.0217,-0.0222,-0.0244,-0.0264,-0.0278,-0.0289,-0.0301,-0.0302,-0.0288,-0.0307,-0.0303,-0.03,-0.0299,-0.0283,-0.0278,-0.0336,-0.0336,-0.0336,0,0,-0.0184,-0.0187,-0.0186,-0.0185,-0.0187,-0.0177,-0.0201,-0.0193,-0.0192,-0.0227,-0.0229,-0.0248,-0.0273,-0.0278,-0.0282,-0.0295,-0.0266,-0.0298,-0.0295,-0.0296,-0.0281,-0.0275,-0.027,-0.0335,-0.0335,-0.0335,0,0,-0.0154,-0.0164,-0.0148,-0.0146,-0.0145,-0.0154,-0.015,-0.0157,-0.0167,-0.0166,-0.0195,-0.0212,-0.0227,-0.0252,-0.0266,-0.0244,-0.0242,-0.0247,-0.0231,-0.0215,-0.0211,-0.0206,-0.0137,-0.0127,-0.025,-0.025,-0.025,0,-0.0144,-0.0128,-0.014,-0.0123,-0.012,-0.0141,-0.0123,-0.0132,-0.0142,-0.0145,-0.0161,-0.0186,-0.0218,-0.0228,-0.0231,-0.0238,-0.0205,-0.025,-0.021,-0.0206,-0.0202,-0.0133,-0.0122,-0.0248,-0.0248,-0.0248,-0.0248,0,-0.0101,-0.0091,-0.0077,-0.0071,-0.0069,-0.0053,-0.0069,-0.0071,-0.0088,-0.0101,-0.0108,-0.0144,-0.0162,-0.0178,-0.0204,-0.0197,-0.017,-0.0203,-0.0224,-0.0195,-0.0123,-0.0112,-0.0245,-0.0246,-0.0246,-0.0247,0,0,-0.007,-0.0052,-0.0048,-0.0038,-0.0041,-0.0031,-0.0031,-0.0032,-0.0023,-0.0049,-0.0037,-0.0087,-0.0108,-0.0124,-0.0158,-0.016,-0.0107,-0.0172,-0.0172,-0.0102,-0.0019,-0.0004,0.0009,-0.013,-0.0129,-0.0128,0.0036,0,-0.0033,0.001,0.0003,0.0034,0.0053,0.0029,0.0036,0.0028,0.0015,0.0022,-0.0023,-0.002,-0.0086,-0.0087,-0.0105,-0.0105,-0.0085,-0.0146,-0.0058,-0.0054,-0.0047,0.0018,0.0011,0.0156,0.0047,0.0048,0.005,0,0.0012,0.0034,0.0074,0.0089,0.0096,0.0107,0.0114,0.0118,0.011,0.0104,0.0084,0.006,0.0048,-0.001,0.0008,-0.0021,-0.0019,-0.0019,-0.0014,-0.001,-0.0022,0.01,0.0179,0.004,0.0066,0.0064,0.0063,0,0.0049,0.0081,0.0114,0.012,0.0134,0.0144,0.0151,0.0147,0.0167,0.0166,0.0195,0.016,0.0178,0.0151,0.0135,0.0083,0.0185,0.0112,0.0141,0.0145,0.0149,0.015,0.0096,0.0136,0.0136,0.0135,0.0135,0,0.0091,0.0118,0.0137,0.0156,0.02,0.019,0.0234,0.0231,0.0252,0.0303,0.0245,0.0296,0.0218,0.0254,0.0206,0.0235,0.0249,0.0171,0.0183,0.0165,0.0166,0.0051,-0.0039,0.0141,0.014,0.0139,0.0138,0,0.0129,0.0139,0.018,0.0206,0.022,0.0251,0.0299,0.0334,0.0348,0.0418,0.0431,0.0437,0.0497,0.0452,0.0454,0.0362,0.0301,0.037,0.0383,0.0391,0.0229,0.0143,0.0139,0.0075,0.0416,0.0417,0.0418,0,0.0153,0.0179,0.0222,0.0255,0.027,0.032,0.036,0.038,0.0428,0.0518,0.0567,0.0644,0.073,0.0754,0.0629,0.0601,0.043,0.0513,0.0369,0.0242,0.0156,0.0087,0.0027,0.0421,0.0422,0.0422,0.0423,0,0.0199,0.0212,0.0247,0.0313,0.036,0.0419,0.0481,0.0536,0.0584,0.0675,0.0814,0.0904,0.0934,0.0911,0.083,0.0744,0.0388,0.0526,0.038,0.0147,0.0086,0.0024,0.0324,0.043,0.043,0.0429,0.0429,0.0428,0.0235,0.0267,0.0312,0.0374,0.0433,0.051,0.0573,0.0667,0.0784,0.096,0.1023,0.1244,0.112,0.1023,0.0858,0.0505,0.0492,0.0358,0.0276,0.0228,0.011,0.045,0.0558,0.0558,0.0558,0.0558,0.0558,0,0.0274,0.0311,0.0372,0.0443,0.0513,0.0533,0.0648,0.0738,0.0906,0.1162,0.1339,0.1495,0.1287,0.1027,0.0559,0.029,0.0146,0.0132,-0.0,-0.0046,0.0257,0.0194,0.0245,0.0246,0.0246,0.0246,0.0246,0.0246,0.0298,0.0354,0.0381,0.0491,0.0548,0.065,0.0718,0.0888,0.1095,0.1457,0.1712,0.1903,0.1705,0.0746,0.013,-0.0015,-0.0247,-0.0249,-0.0356,-0.0204,-0.0192,-0.018,-0.0262,-0.0307,-0.0308,-0.0645,-0.0649,-0.0652]}],[{"header":{"parameterUnit":"m.s-1","parameterCategory":2,"la1":30.2991,"la2":30.254,"lo1":-89.0895,"lo2":-89.0444,"dy":0.0017,"dx":0.0017,"nx":28,"ny":28,"refTime":"2025-03-09T09:00:00:Z","depth":"2","parameterNumber":2,"parameterNumberName":"U-component_of_CURRENTS"},"data":[0,0,0,0,0,0,0,0,0,0,0,0,0,0,0,0,0,0,0,0,0,0,0,0,0,0,0,0,0,0,0,0,0,0,0,0,0,0,0,0,0,0,0,0,0,0,0,0,0,0,0,0,0,0,0,0,0,0,0.1904,0.1904,0,0.1904,0.1904,0.1904,0.1908,0.1909,0.1909,0.1909,0.1906,0.1906,0.1906,0,0,0,0,0,0,0,0,0,0,0,0,0,0.1907,0.1907,0.1904,0.1904,0.1904,0.1904,0.1904,0.1904,0.1908,0.1909,0.1909,0.1909,0.1906,0.1906,0.1906,0,0,0,0,0,0,0,0,0,0,0,0,0,0.1906,0.1907,0.1904,0.1907,0.1907,0.1904,0.1904,0.1904,0.1908,0.1909,0.1909,0.1909,0.1907,0.1906,0.1906,0.19,0,0,0.1905,0.1905,0,0,0,0,0,0,0,0,0.1906,0.1906,0.1906,0.1906,0.1907,0.1907,0.1904,0.1902,0.1908,0.1908,0.1909,0.1909,0.1906,0.1906,0.1905,0.19,0.19,0.1905,0.1905,0.1905,0.1905,0,0,0,0,0,0,0,0.1906,0.1906,0.1904,0.1906,0.1906,0.1907,0.1907,0.1904,0.1906,0.1908,0.1908,0.1908,0.1906,0.1905,0.1905,0.19,0.1905,0.1905,0.1905,0.1904,0.1937,0.1938,0,0,0,0,0,0,0.1907,0.1906,0.1904,0.1904,0.1907,0.1907,0.1907,0.1906,0.1906,0.1906,0.1908,0.1908,0.1906,0.1906,0.1905,0.1938,0.1905,0.1904,0.1904,0.1936,0.1937,0.1938,0,0,0,0,0,0,0.1907,0.1906,0.1904,0.1905,0.1905,0.1907,0.1906,0.1906,0.1916,0.1906,0.1906,0.1919,0.1906,0.1906,0.1914,0.1936,0.1904,0.1904,0.1935,0.1936,0.1938,0.1978,0,0,0,0,0,0,0.1907,0.1906,0.1908,0.1905,0.1905,0.191,0.1906,0.1906,0.1915,0.1916,0.1915,0.1914,0.1906,0.1915,0.1914,0.1935,0.1904,0.1933,0.1935,0.1937,0.1975,0.198,0.1985,0,0,0,0,0,0.1907,0.1904,0.1908,0.1908,0.1907,0.191,0.191,0.1912,0.1915,0.1921,0.1923,0.1915,0.1927,0.1915,0.1914,0.1936,0.1932,0.1935,0.1937,0.1973,0.1979,0.1985,0,0,0,0,0,0,0.1904,0.1904,0.1909,0.1906,0.1914,0.1911,0.1915,0.1919,0.1925,0.1929,0.1921,0.1921,0.194,0.1931,0.1919,0.1952,0.1931,0.1933,0.1958,0.1964,0.1969,0.1975,0.1904,0,0,0,0,0,0.1905,0.1907,0.1909,0.1911,0.1914,0.1919,0.1922,0.1926,0.1929,0.1933,0.193,0.1935,0.1947,0.195,0.1954,0.1965,0.1983,0.1982,0.1987,0.1991,0.1996,0.2052,0.2063,0.1946,0.1946,0.1946,0,0,0.1906,0.1906,0.1908,0.1912,0.1917,0.1926,0.1921,0.1931,0.1944,0.1931,0.1946,0.1951,0.1955,0.1973,0.1981,0.1969,0.2034,0.1994,0.1997,0.2,0.2056,0.2068,0.2078,0.1948,0.1947,0.1947,0,0,0.1906,0.1909,0.1912,0.1918,0.1929,0.1936,0.1942,0.1947,0.1956,0.1973,0.1973,0.1992,0.1999,0.2009,0.2016,0.2051,0.206,0.2054,0.208,0.2136,0.2146,0.2155,0.2194,0.2206,0.2054,0.2054,0.2054,0,0.1908,0.1911,0.1915,0.192,0.1928,0.1943,0.1953,0.1965,0.1974,0.199,0.1986,0.2023,0.2021,0.2056,0.2068,0.2063,0.2091,0.2056,0.2143,0.2153,0.2162,0.2199,0.2212,0.2056,0.2056,0.2056,0.2056,0,0.191,0.1917,0.192,0.1936,0.1946,0.1958,0.1975,0.1993,0.2011,0.2029,0.2069,0.2072,0.21,0.2103,0.2094,0.2154,0.2153,0.2146,0.2129,0.2176,0.2212,0.2225,0.2059,0.2059,0.2058,0.2057,0,0,0.1903,0.192,0.1922,0.1932,0.1956,0.1964,0.1995,0.203,0.2063,0.2083,0.2129,0.2149,0.2164,0.2172,0.2169,0.2206,0.2287,0.2202,0.2204,0.2241,0.2408,0.2336,0.2343,0.2302,0.2305,0.2307,0.2409,0,0.1907,0.1919,0.1929,0.1951,0.196,0.1987,0.2017,0.2053,0.209,0.2137,0.2167,0.221,0.2188,0.221,0.2246,0.2284,0.2324,0.226,0.2356,0.2358,0.229,0.2356,0.2147,0.2214,0.2421,0.2423,0.2425,0,0.1901,0.1914,0.1929,0.1963,0.1971,0.1994,0.2052,0.2081,0.2154,0.2186,0.2239,0.2268,0.2329,0.2303,0.24,0.2364,0.2391,0.2411,0.2415,0.2342,0.231,0.22,0.223,0.2446,0.2445,0.2443,0.2442,0,0.1886,0.1911,0.1926,0.1935,0.1977,0.2002,0.2037,0.2102,0.2146,0.2228,0.2277,0.2346,0.2396,0.2449,0.2492,0.2463,0.2596,0.2563,0.252,0.2515,0.2351,0.2327,0.2635,0.2635,0.2635,0.2634,0.2634,0,0.1877,0.1889,0.1923,0.1932,0.1966,0.2,0.2057,0.21,0.2188,0.2241,0.2305,0.2358,0.2439,0.2516,0.2538,0.2578,0.2644,0.2541,0.2545,0.2357,0.2334,0.2539,0.2527,0.2638,0.2637,0.2636,0.2636,0,0.1847,0.1871,0.1889,0.1938,0.1956,0.1981,0.2067,0.2108,0.2195,0.227,0.2304,0.241,0.2494,0.2564,0.2658,0.2634,0.2679,0.2671,0.2437,0.241,0.2546,0.2534,0.2637,0.2635,0.2634,0.2633,0.2632,0,0.1832,0.1836,0.188,0.1894,0.1918,0.1968,0.2002,0.2098,0.2142,0.2282,0.2309,0.2433,0.2476,0.2596,0.2587,0.2627,0.2677,0.2445,0.2338,0.2557,0.2551,0.2541,0.2532,0.2142,0.2137,0.2133,0.213,0,0.1806,0.1822,0.1841,0.1857,0.189,0.1923,0.1982,0.2016,0.2119,0.2183,0.2259,0.2318,0.2422,0.2362,0.2421,0.2406,0.2419,0.2363,0.2686,0.2164,0.2096,0.2088,0.2094,0.2094,0.2098,0.21,0.2102,0.2104,0.1788,0.1787,0.1804,0.1813,0.1845,0.1852,0.1851,0.1908,0.1954,0.2001,0.2122,0.2138,0.2194,0.2161,0.2113,0.2073,0.2235,0.2129,0.2139,0.2154,0.2069,0.2001,0.1966,0.1969,0.1971,0.1973,0.1975,0,0.174,0.1744,0.1755,0.1746,0.1725,0.1782,0.181,0.1779,0.177,0.1833,0.1874,0.1754,0.1745,0.1807,0.1689,0.1693,0.1652,0.162,0.155,0.1588,0.1621,0.1506,0.1255,0.1253,0.125,0.1248,0,0,0.1718,0.1704,0.1698,0.1631,0.1619,0.1572,0.1569,0.1531,0.1546,0.1491,0.1487,0.1647,0.1749,0.1479,0.1448,0.1328,0.1436,0.1267,0.185,0.1805,0.1834,0.1928,0.1795,0,0,0,0,0]},{"header":{"parameterUnit":"m.s-1","parameterCategory":2,"la1":30.2991,"la2":30.254,"lo1":-89.0895,"lo2":-89.0444,"dy":0.0017,"dx":0.0017,"nx":28,"ny":28,"refTime":"2025-03-09T09:00:00:Z","depth":"2","parameterNumber":3,"parameterNumberName":"V-component_of_CURRENTS"},"data":[0,0,0,0,0,0,0,0,0,0,0,0,0,0,0,0,0,0,0,0,0,0,0,0,0,0,0,0,0,0,0,0,0,0,0,0,0,0,0,0,0,0,0,0,0,0,0,0,0,0,0,0,0,0,0,0,0,0,0.0139,0.0139,0,0.0115,0.0115,0.0114,0.0095,0.0094,0.0094,0.0094,0.0062,0.0062,0.0061,0,0,0,0,0,0,0,0,0,0,0,0,0,0.0143,0.0143,0.0139,0.0139,0.0139,0.0115,0.0115,0.0114,0.0095,0.0094,0.0094,0.0094,0.0063,0.0062,0.0061,0,0,0,0,0,0,0,0,0,0,0,0,0,0.0131,0.0143,0.0139,0.0127,0.0126,0.0115,0.0115,0.0114,0.0095,0.0094,0.0094,0.0094,0.0063,0.0062,0.0061,0.0057,0,0,0.0057,0.0057,0,0,0,0,0,0,0,0,0.0132,0.0131,0.0129,0.0128,0.0126,0.0109,0.0104,0.0095,0.0095,0.0105,0.0094,0.0094,0.0078,0.0076,0.007,0.0055,0.0054,0.0057,0.0056,0.0056,0.0056,0,0,0,0,0,0,0,0.0133,0.0132,0.0128,0.0129,0.0127,0.0114,0.0112,0.0102,0.0092,0.0104,0.0103,0.0102,0.0077,0.0071,0.0069,0.0053,0.0057,0.0056,0.0055,0.0055,0.0034,0.0034,0,0,0,0,0,0,0.014,0.0133,0.0129,0.0128,0.013,0.0114,0.0112,0.0113,0.0092,0.0089,0.0102,0.0101,0.0073,0.007,0.0068,0.0071,0.0056,0.0055,0.0054,0.0034,0.0034,0.0034,0,0,0,0,0,0,0.014,0.014,0.013,0.013,0.0128,0.0115,0.0116,0.0113,0.0108,0.0091,0.0087,0.01,0.0073,0.0069,0.0061,0.0069,0.0054,0.0053,0.0033,0.0034,0.0034,0.0072,0,0,0,0,0,0,0.014,0.014,0.0142,0.0131,0.0129,0.0128,0.0116,0.0113,0.0108,0.0106,0.0088,0.0084,0.0072,0.0063,0.006,0.0068,0.0052,0.0033,0.0034,0.0034,0.0071,0.0074,0.0076,0,0,0,0,0,0.014,0.0147,0.0142,0.0141,0.0132,0.0128,0.0126,0.0114,0.0108,0.0108,0.0095,0.0085,0.0062,0.0062,0.0059,0.0066,0.0033,0.0033,0.0034,0.0069,0.0073,0.0076,0,0,0,0,0,0,0.0147,0.0145,0.014,0.0144,0.0138,0.0125,0.0125,0.0117,0.0106,0.0104,0.0087,0.0083,0.0078,0.0066,0.0066,0.006,0.0046,0.0046,0.0074,0.0077,0.008,0.0095,0.0051,0,0,0,0,0,0.0151,0.0155,0.0148,0.0151,0.0149,0.0137,0.0133,0.0125,0.0116,0.0111,0.0098,0.0085,0.0076,0.0072,0.0059,0.0058,0.0047,0.0059,0.0062,0.0065,0.0074,0.0062,0.0065,0.0035,0.0035,0.0035,0,0,0.0153,0.0153,0.0154,0.0152,0.0146,0.0151,0.0134,0.0131,0.0138,0.0109,0.0112,0.0093,0.0076,0.0074,0.0071,0.0066,0.0066,0.0065,0.0067,0.0075,0.0063,0.0066,0.0069,0.0035,0.0035,0.0035,0,0,0.0164,0.0161,0.0169,0.0169,0.0165,0.016,0.0161,0.015,0.0148,0.0146,0.0128,0.0115,0.0101,0.0092,0.0086,0.0096,0.0078,0.009,0.0119,0.0108,0.0111,0.0113,0.0099,0.01,0.0094,0.0094,0.0094,0,0.0167,0.018,0.017,0.0181,0.0187,0.0168,0.0181,0.0176,0.0164,0.0169,0.0152,0.0134,0.0113,0.0118,0.0117,0.0103,0.0093,0.011,0.0113,0.0115,0.0116,0.0102,0.0102,0.0096,0.0096,0.0095,0.0095,0,0.0187,0.0198,0.0204,0.0214,0.0217,0.0225,0.0221,0.0224,0.0216,0.021,0.0209,0.0178,0.0169,0.0157,0.0139,0.0143,0.013,0.0116,0.0108,0.0122,0.0105,0.0105,0.0099,0.0098,0.0097,0.0097,0,0,0.0196,0.0216,0.0218,0.0237,0.0239,0.0248,0.0261,0.0273,0.0295,0.0268,0.0291,0.0256,0.0233,0.0224,0.0197,0.0185,0.0176,0.0158,0.0156,0.015,0.0152,0.0126,0.0122,0.0164,0.0164,0.0164,0.0135,0,0.0217,0.0251,0.0253,0.0287,0.0308,0.0304,0.0327,0.0334,0.0332,0.0347,0.0313,0.0316,0.0262,0.0259,0.0235,0.0198,0.0178,0.0186,0.0134,0.0133,0.0112,0.0122,0.014,0.0114,0.0134,0.0134,0.0134,0,0.0239,0.0264,0.0301,0.0345,0.0354,0.037,0.0411,0.0429,0.0439,0.0439,0.0424,0.0395,0.037,0.0323,0.026,0.0268,0.0211,0.0175,0.0173,0.0137,0.0106,0.0102,0.0112,0.0133,0.0133,0.0133,0.0133,0,0.0262,0.03,0.0337,0.0349,0.0388,0.0411,0.0435,0.0456,0.0493,0.0498,0.0523,0.0472,0.0465,0.0389,0.0296,0.0281,0.023,0.02,0.012,0.0118,0.0118,0.0115,0.0152,0.0152,0.0152,0.0152,0.0152,0,0.029,0.0321,0.0353,0.0377,0.0437,0.0448,0.0515,0.053,0.0569,0.0631,0.0572,0.0604,0.0483,0.0433,0.0331,0.023,0.0252,0.0131,0.0111,0.013,0.0128,0.0133,0.0131,0.0151,0.0151,0.0151,0.0151,0,0.0311,0.0328,0.0381,0.043,0.0449,0.0495,0.0575,0.063,0.0654,0.0733,0.074,0.0708,0.0646,0.0518,0.0402,0.0288,0.0187,0.0142,0.0168,0.0151,0.0071,0.0071,0.0052,0.005,0.0049,0.0049,0.0048,0,0.0325,0.0351,0.0421,0.0465,0.0489,0.056,0.0621,0.0668,0.0734,0.0808,0.0855,0.0812,0.08,0.0608,0.0406,0.0223,0.0195,0.0104,0.0069,0.0079,0.0062,0.0064,0.0066,0.0083,0.0083,0.0083,0.0082,0,0.0357,0.0379,0.0428,0.0518,0.0585,0.0672,0.0757,0.0826,0.0903,0.0967,0.1043,0.1037,0.0856,0.067,0.04,0.0271,0.0131,0.0091,0.011,0.0102,0.0105,0.0089,0.0091,0.008,0.008,0.008,0.0081,0.0081,0.0385,0.0427,0.0494,0.0583,0.0665,0.0777,0.0869,0.0968,0.1084,0.1192,0.1171,0.1161,0.0941,0.0594,0.037,0.0118,0.0124,0.0028,0.003,0.0033,0.0038,0.0039,0.0002,0.0002,0.0002,0.0002,0.0002,0,0.0424,0.0475,0.0558,0.0671,0.0774,0.081,0.0961,0.106,0.121,0.1268,0.1317,0.1103,0.0892,0.0638,0.0267,0.0046,0.0033,-0.0026,0.001,0.0013,0.0017,0.0022,-0.0019,-0.002,-0.002,-0.0021,0,0,0.0447,0.0526,0.0571,0.074,0.083,0.0988,0.1085,0.1216,0.1289,0.1348,0.1323,0.1272,0.0961,0.069,0.04,0.0191,0.0151,0.0146,0.0185,0.0266,0.0272,0.0069,0.0083,0,0,0,0,0]}],[{"header":{"parameterUnit":"m.s-1","parameterCategory":2,"la1":30.2991,"la2":30.254,"lo1":-89.0895,"lo2":-89.0444,"dy":0.0017,"dx":0.0017,"nx":28,"ny":28,"refTime":"2025-03-09T09:00:00:Z","depth":"4","parameterNumber":2,"parameterNumberName":"U-component_of_CURRENTS"},"data":[0,0,0,0,0,0,0,0,0,0,0,0,0,0,0,0,0,0,0,0,0,0,0,0,0,0,0,0,0,0,0,0,0,0,0,0,0,0,0,0,0,0,0,0,0,0,0,0,0,0,0,0,0,0,0,0,0,0,0.1123,0.1124,0,0.1157,0.1157,0.1157,0.1183,0.1184,0.1184,0.1185,0.1221,0.1221,0.1222,0,0,0,0,0,0,0,0,0,0,0,0,0,0.1088,0.1088,0.1123,0.1124,0.1124,0.1157,0.1157,0.1157,0.1183,0.1184,0.1184,0.1185,0.1221,0.1221,0.1222,0,0,0,0,0,0,0,0,0,0,0,0,0,0.1109,0.1089,0.1123,0.1143,0.1145,0.1156,0.1157,0.1157,0.1183,0.1184,0.1185,0.1185,0.122,0.1221,0.1222,0.1213,0,0,0.1224,0.1225,0,0,0,0,0,0,0,0,0.1107,0.1109,0.1139,0.1142,0.1144,0.1168,0.1158,0.1177,0.1183,0.1166,0.1185,0.1186,0.1204,0.1207,0.1208,0.1215,0.1216,0.1224,0.1225,0.1225,0.1225,0,0,0,0,0,0,0,0.1106,0.1108,0.1134,0.114,0.1143,0.1153,0.1156,0.1161,0.1179,0.1168,0.117,0.1177,0.1206,0.1207,0.1209,0.1217,0.1224,0.1225,0.1226,0.1226,0.1295,0.1296,0,0,0,0,0,0,0.1105,0.1107,0.1133,0.1135,0.113,0.1153,0.1156,0.1158,0.1179,0.1184,0.1177,0.1179,0.1206,0.1208,0.1211,0.1266,0.1225,0.1226,0.1226,0.1294,0.1295,0.1297,0,0,0,0,0,0,0.1104,0.1107,0.1132,0.1124,0.1128,0.1153,0.1154,0.1158,0.1186,0.1187,0.1191,0.1204,0.1206,0.121,0.1239,0.1265,0.1226,0.1227,0.1292,0.1294,0.1296,0.1335,0,0,0,0,0,0,0.1103,0.1106,0.112,0.1124,0.1129,0.1152,0.1154,0.1159,0.1189,0.1192,0.121,0.1213,0.1207,0.1238,0.124,0.1265,0.1228,0.129,0.1293,0.1295,0.1332,0.1338,0.1343,0,0,0,0,0,0.1101,0.1111,0.112,0.1124,0.1142,0.1153,0.1157,0.1175,0.119,0.1202,0.122,0.1214,0.1256,0.124,0.1242,0.1268,0.1289,0.1292,0.1295,0.1329,0.1337,0.1343,0,0,0,0,0,0,0.1104,0.1115,0.1125,0.1139,0.1154,0.1159,0.1178,0.119,0.1214,0.1227,0.1227,0.123,0.1267,0.1264,0.1246,0.1297,0.1273,0.1277,0.1299,0.1306,0.1311,0.1305,0.1228,0,0,0,0,0,0.1111,0.1124,0.1133,0.1149,0.1159,0.1174,0.1188,0.12,0.1216,0.1229,0.1242,0.126,0.1276,0.1289,0.13,0.1325,0.1332,0.1345,0.1351,0.1356,0.1354,0.1398,0.1407,0.1307,0.1307,0.1307,0,0,0.1118,0.1127,0.1136,0.1152,0.1167,0.118,0.1184,0.1212,0.1229,0.1228,0.1266,0.1281,0.1288,0.1317,0.1334,0.1321,0.1389,0.1359,0.1363,0.1358,0.1402,0.1412,0.142,0.1309,0.1308,0.1308,0,0,0.1128,0.1146,0.1159,0.1171,0.1198,0.1205,0.1219,0.124,0.1259,0.1293,0.1299,0.1329,0.1356,0.1363,0.1369,0.1414,0.1418,0.1427,0.145,0.1494,0.1502,0.1509,0.1534,0.1543,0.1429,0.1429,0.1429,0,0.1141,0.1151,0.1166,0.1179,0.1193,0.1219,0.1233,0.1254,0.1284,0.1305,0.1314,0.1367,0.1374,0.1405,0.1422,0.1425,0.1449,0.1421,0.1501,0.1508,0.1515,0.1538,0.1548,0.1432,0.1431,0.1431,0.1431,0,0.1149,0.1168,0.1179,0.1202,0.1219,0.1238,0.1262,0.1293,0.1325,0.1347,0.1399,0.1413,0.1446,0.1456,0.1452,0.1506,0.1506,0.1503,0.1481,0.1527,0.1549,0.1558,0.1435,0.1434,0.1433,0.1433,0,0,0.1144,0.1178,0.1185,0.1198,0.1233,0.1243,0.1283,0.1318,0.1354,0.1396,0.1441,0.1473,0.1497,0.1506,0.1513,0.1544,0.1612,0.1549,0.1551,0.1569,0.1708,0.1585,0.1584,0.1633,0.1635,0.1637,0.1703,0,0.1149,0.1173,0.119,0.1219,0.1231,0.1265,0.1296,0.1337,0.1382,0.1435,0.147,0.1519,0.1512,0.1542,0.1574,0.1608,0.1639,0.1594,0.1664,0.1665,0.1547,0.1591,0.1643,0.171,0.1712,0.1714,0.1715,0,0.1144,0.1162,0.1188,0.1225,0.1235,0.1261,0.1318,0.1352,0.1427,0.1467,0.1526,0.1561,0.1619,0.1609,0.1689,0.1668,0.1692,0.1708,0.1712,0.1587,0.1559,0.1654,0.1732,0.1731,0.1729,0.1728,0.1727,0,0.1118,0.1158,0.1179,0.1191,0.1238,0.1267,0.1303,0.1371,0.141,0.1502,0.1549,0.1618,0.1672,0.1716,0.1756,0.1742,0.1837,0.182,0.1726,0.1718,0.1791,0.1782,0.1874,0.1874,0.1874,0.1873,0.1873,0,0.1097,0.1117,0.1175,0.1183,0.122,0.1262,0.1315,0.1364,0.1445,0.1492,0.1574,0.1615,0.1708,0.1768,0.1787,0.1785,0.187,0.1732,0.1729,0.1806,0.1798,0.1798,0.1788,0.1876,0.1875,0.1875,0.1874,0,0.1056,0.1095,0.112,0.118,0.1207,0.1235,0.1318,0.1347,0.1442,0.1509,0.1546,0.165,0.1723,0.1788,0.1866,0.1814,0.1828,0.1804,0.1884,0.1885,0.167,0.1662,0.17,0.1697,0.1693,0.1691,0.1689,0,0.1031,0.1044,0.1112,0.1128,0.1159,0.1215,0.1245,0.1339,0.1372,0.1505,0.1524,0.1638,0.1693,0.1708,0.1781,0.181,0.1786,0.1774,0.1707,0.166,0.1655,0.1651,0.1647,0.1684,0.1683,0.1682,0.1681,0,0.098,0.1017,0.1035,0.1074,0.1109,0.1138,0.1197,0.1216,0.1318,0.1425,0.1468,0.1507,0.1583,0.1634,0.1675,0.1687,0.1769,0.174,0.1746,0.1683,0.164,0.1637,0.1637,0.167,0.1672,0.1673,0.1673,0,0.0943,0.0944,0.0977,0.0998,0.1035,0.1035,0.1081,0.1119,0.1171,0.1321,0.1334,0.1452,0.1564,0.1571,0.1605,0.1613,0.158,0.1512,0.1529,0.1542,0.1457,0.1377,0.1326,0,0,0,0,0,0.09,0.0886,0.0896,0.0899,0.0927,0.0952,0.1027,0.1077,0.1191,0.1184,0.1256,0.1317,0.1368,0.1432,0.1408,0.153,0.1583,0.1493,0.1512,0.1609,0.1622,0.1536,0,0,0,0,0,0,0.0867,0.0873,0.0863,0.0807,0.0794,0.0813,0.0856,0.0936,0.0945,0.1077,0.1121,0.122,0.1302,0.1369,0.1378,0.1397,0.1376,0.1573,0.1569,0.1602,0.1613,0.1624,0.154,0,0,0,0,0]},{"header":{"parameterUnit":"m.s-1","parameterCategory":2,"la1":30.2991,"la2":30.254,"lo1":-89.0895,"lo2":-89.0444,"dy":0.0017,"dx":0.0017,"nx":28,"ny":28,"refTime":"2025-03-09T09:00:00:Z","depth":"4","parameterNumber":3,"parameterNumberName":"V-component_of_CURRENTS"},"data":[0,0,0,0,0,0,0,0,0,0,0,0,0,0,0,0,0,0,0,0,0,0,0,0,0,0,0,0,0,0,0,0,0,0,0,0,0,0,0,0,0,0,0,0,0,0,0,0,0,0,0,0,0,0,0,0,0,0,0.0166,0.0166,0,0.0152,0.0152,0.0151,0.0147,0.0147,0.0147,0.0147,0.0128,0.0128,0.0127,0,0,0,0,0,0,0,0,0,0,0,0,0,0.0167,0.0167,0.0166,0.0166,0.0166,0.0152,0.0152,0.0151,0.0146,0.0147,0.0147,0.0147,0.0128,0.0128,0.0127,0,0,0,0,0,0,0,0,0,0,0,0,0,0.0161,0.0167,0.0166,0.0162,0.0162,0.0152,0.0152,0.0151,0.0146,0.0147,0.0147,0.0147,0.0129,0.0128,0.0127,0.0118,0,0,0.0124,0.0124,0,0,0,0,0,0,0,0,0.0161,0.0161,0.0163,0.0162,0.0162,0.0151,0.0145,0.014,0.0146,0.0152,0.0147,0.0147,0.0136,0.0134,0.0131,0.0118,0.0117,0.0124,0.0124,0.0123,0.0123,0,0,0,0,0,0,0,0.0162,0.0161,0.016,0.0163,0.0162,0.0153,0.0153,0.0144,0.0143,0.0151,0.0151,0.015,0.0135,0.0132,0.013,0.0117,0.0124,0.0123,0.0123,0.0122,0.0106,0.0106,0,0,0,0,0,0,0.0165,0.0162,0.0161,0.016,0.0162,0.0153,0.0153,0.0154,0.0143,0.0141,0.015,0.015,0.0133,0.0131,0.013,0.0138,0.0123,0.0122,0.0122,0.0106,0.0106,0.0106,0,0,0,0,0,0,0.0166,0.0166,0.0161,0.0161,0.0159,0.0153,0.0155,0.0154,0.0153,0.0142,0.014,0.0151,0.0133,0.0131,0.0126,0.0136,0.0122,0.0121,0.0106,0.0106,0.0106,0.0142,0,0,0,0,0,0,0.0166,0.0166,0.0169,0.0161,0.016,0.0159,0.0155,0.0154,0.0153,0.0153,0.0142,0.0141,0.0133,0.0128,0.0125,0.0135,0.012,0.0106,0.0106,0.0106,0.0141,0.0143,0.0146,0,0,0,0,0,0.0166,0.017,0.0169,0.0169,0.0164,0.0159,0.0158,0.0153,0.0153,0.0153,0.0147,0.0141,0.0127,0.0127,0.0124,0.0134,0.0106,0.0106,0.0106,0.014,0.0143,0.0146,0,0,0,0,0,0,0.0169,0.0169,0.0168,0.0171,0.0167,0.0159,0.0159,0.0156,0.0151,0.0152,0.0141,0.0139,0.0139,0.0128,0.0129,0.0128,0.0115,0.0115,0.0142,0.0145,0.0147,0.0159,0.012,0,0,0,0,0,0.0172,0.0176,0.0172,0.0174,0.0174,0.0167,0.0165,0.0162,0.0156,0.0155,0.0148,0.014,0.0136,0.0135,0.0126,0.0126,0.0108,0.013,0.0132,0.0134,0.0141,0.0123,0.0125,0.0107,0.0107,0.0107,0,0,0.0173,0.0174,0.0176,0.0175,0.0173,0.0178,0.0166,0.0165,0.0173,0.0153,0.016,0.0147,0.0137,0.0138,0.0137,0.0133,0.0127,0.0135,0.0137,0.0143,0.0123,0.0125,0.0127,0.0107,0.0107,0.0107,0,0,0.0179,0.018,0.0187,0.0188,0.0186,0.0184,0.0186,0.0179,0.0181,0.0183,0.0173,0.0167,0.0159,0.0156,0.0153,0.0163,0.014,0.0158,0.0183,0.0165,0.0167,0.0168,0.0137,0.0136,0.0161,0.0161,0.0161,0,0.0181,0.0192,0.0187,0.0195,0.0202,0.019,0.0203,0.0202,0.0195,0.0201,0.0191,0.0182,0.017,0.0179,0.0182,0.0171,0.015,0.0175,0.0169,0.017,0.0171,0.0139,0.0137,0.0163,0.0163,0.0163,0.0163,0,0.0193,0.0205,0.0209,0.0221,0.0226,0.0233,0.0235,0.0239,0.0239,0.0236,0.024,0.0221,0.0218,0.0211,0.0201,0.0202,0.0182,0.0173,0.0164,0.0175,0.014,0.0137,0.0166,0.0165,0.0164,0.0164,0,0,0.0195,0.0216,0.0219,0.0237,0.0244,0.0252,0.0268,0.0282,0.03,0.0285,0.0302,0.0288,0.0271,0.0267,0.0249,0.0234,0.0213,0.0208,0.0206,0.0182,0.0162,0.0137,0.013,0.0203,0.0203,0.0203,0.0133,0,0.021,0.0238,0.0244,0.0276,0.0294,0.0299,0.0321,0.033,0.0332,0.0342,0.0322,0.0326,0.0295,0.0294,0.0273,0.0233,0.0208,0.0232,0.0151,0.0149,0.013,0.0128,0.0202,0.013,0.0129,0.0129,0.0128,0,0.0223,0.0245,0.0279,0.0321,0.033,0.0348,0.0387,0.0405,0.0413,0.0414,0.0405,0.0381,0.0361,0.0331,0.0264,0.0279,0.0224,0.0186,0.0182,0.0147,0.0119,0.0119,0.0122,0.0123,0.0123,0.0123,0.0124,0,0.0235,0.0272,0.0305,0.0318,0.0358,0.0382,0.0407,0.0427,0.0456,0.0457,0.0468,0.043,0.0419,0.035,0.0263,0.0263,0.0179,0.0169,0.0091,0.0088,0.0115,0.0115,0.0116,0.0116,0.0116,0.0116,0.0117,0,0.0252,0.0281,0.0317,0.0338,0.0392,0.0409,0.0465,0.0482,0.0511,0.0546,0.0506,0.0512,0.0423,0.0362,0.0275,0.0171,0.0184,0.0094,0.0071,0.013,0.0132,0.0112,0.0113,0.0114,0.0114,0.0115,0.0115,0,0.0259,0.0281,0.0327,0.0378,0.04,0.044,0.0512,0.0553,0.057,0.0612,0.0615,0.0574,0.0492,0.0388,0.0272,0.0193,0.0092,0.0048,0.011,0.0092,0.0007,0.001,-0.0041,-0.0042,-0.0043,-0.0044,-0.0045,0,0.0265,0.0288,0.0356,0.0394,0.0421,0.0485,0.0538,0.0581,0.0625,0.0649,0.067,0.0604,0.0559,0.0379,0.026,0.0085,0.0058,-0.0003,0.0009,0.001,-0.0007,-0.0002,0.0002,-0.0047,-0.0047,-0.0048,-0.0048,0,0.0279,0.0302,0.0344,0.0422,0.0483,0.0556,0.0628,0.0664,0.0715,0.0725,0.0714,0.062,0.0524,0.0379,0.0238,0.0114,0.0035,-0.0015,-0.0014,-0.0003,0.0002,-0.0013,-0.0007,-0.0052,-0.0051,-0.0051,-0.0051,0,0.0291,0.0322,0.038,0.0451,0.0528,0.0607,0.0646,0.0699,0.0741,0.0762,0.0751,0.0646,0.0586,0.0392,0.0265,0.0137,0.0105,0.0061,0.0058,0.0061,0.0108,0.013,0.0097,0,0,0,0,0,0.0302,0.0343,0.0407,0.0491,0.0569,0.0619,0.0701,0.0736,0.0777,0.0775,0.0767,0.0675,0.0487,0.0408,0.0276,0.0234,0.0076,0.0073,0.0023,-0.0074,-0.007,-0.0034,0,0,0,0,0,0,0.0312,0.037,0.0406,0.051,0.0573,0.0668,0.0724,0.0754,0.0755,0.0767,0.0673,0.0629,0.0449,0.0562,0.027,0.0231,0.0177,-0.0011,-0.0014,-0.0077,-0.0073,-0.0069,-0.0031,0,0,0,0,0]}]]